Snowfall_Accumulation
0.0 0.0 0.0 0.0 0.0 0.0 0.0 0.0 0.0 0.0 0.0 0.0 0.0 0.0 0.0 0.0 0.0 0.0 0.0 0.0 0.0 0.0 0.0 0.0 0.0 0.0 0.0 0.0 0.0 0.0 0.0 0.0 0.0 0.0 0.0 0.0 0.0 0.0 0.0 0.0 0.0 0.0 0.0
0.0 0.0 0.0 0.0 0.0 0.0 0.0 0.0 0.0 0.0 0.0 0.0 0.0 0.0 0.0 0.0 0.0 0.0 0.0 0.0 0.0 0.0 0.0 0.0 0.0 0.0 0.0 0.0 0.0 0.0 0.0 0.0 0.0 0.0 0.0 0.0 0.0 0.0 0.0 0.0 0.0 0.0 0.0
0.0 0.0 0.0 0.0 0.0 0.0 0.0 0.0 0.0 0.0 0.0 0.0 0.0 0.0 0.0 0.0 0.0 0.0 0.0 0.0 0.0 0.0 0.0 0.0 0.0 0.0 0.0 0.0 0.0 0.0 0.0 0.0 0.0 0.0 0.0 0.0 0.0 0.0 0.0 0.0 0.0 0.0 0.0
0.0 0.0 0.0 0.0 0.0 0.0 0.0 0.0 0.0 0.0 0.0 0.0 0.0 0.0 0.0 0.0 0.0 0.0 0.0 0.0 0.0 0.0 0.0 0.0 0.0 0.0 0.0 0.0 0.0 0.0 0.0 0.0 0.0 0.0 0.0 0.0 0.0 0.0 0.0 0.0 0.0 0.0 0.0
0.0 0.0 0.0 0.0 0.0 0.0 0.0 0.0 0.0 0.0 0.0 0.0 0.0 0.0 0.0 0.0 0.0 0.0 0.0 0.0 0.0 0.0 0.0 0.0 0.0 0.0 0.0 0.0 0.0 0.0 0.0 0.0 0.0 0.0 0.0 0.0 0.0 0.0 0.0 0.0 0.0 0.0 0.0
0.0 0.0 0.0 0.0 0.0 0.0 0.0 0.0 0.0 0.0 0.0 0.0 0.0 0.0 0.0 0.0 0.0 0.0 0.0 0.0 0.0 0.0 0.0 0.0 0.0 0.0 0.0 0.0 0.0 0.0 0.0 0.0 0.0 0.0 0.0 0.0 0.0 0.0 0.0 0.0 0.0 0.0 0.0
0.0 0.0 0.0 0.0 0.0 0.0 0.0 0.0 0.0 0.0 0.0 0.0 0.0 0.0 0.0 0.0 0.0 0.0 0.0 0.0 0.0 0.0 0.0 0.0 0.0 0.0 0.0 0.0 0.0 0.0 0.0 0.0 0.0 0.0 0.0 0.0 0.0 0.0 0.0 0.0 0.0 0.0 0.0
0.0 0.0 0.0 0.0 0.0 0.0 0.0 0.0 0.0 0.0 0.0 0.0 0.0 0.0 0.0 0.0 0.0 0.0 0.0 0.0 0.0 0.0 0.0 0.0 0.0 0.0 0.0 0.0 0.0 0.0 0.0 0.0 0.0 0.0 0.0 0.0 0.0 0.0 0.0 0.0 0.0 0.0 0.0
0.0 0.0 0.0 0.0 0.0 0.0 0.0 0.0 0.0 0.0 0.0 0.0 0.0 0.0 0.0 0.0 0.0 0.0 0.0 0.0 0.0 0.0 0.0 0.0 0.0 0.0 0.0 0.0 0.0 0.0 0.0 0.0 0.0 0.0 0.0 0.0 0.0 0.0 0.0 0.0 0.0 0.0 0.0
0.0 0.0 0.0 0.0 0.0 0.0 0.0 0.0 0.0 0.0 0.0 0.0 0.0 0.0 0.0 0.1 0.3 0.0 0.0 0.0 0.0 0.0 0.0 0.0 0.0 0.0 0.0 0.0 0.0 0.0 0.0 0.0 0.0 0.0 0.0 0.0 0.0 0.0 0.0 0.0 0.0 0.0 0.0
0.0 0.0 0.0 0.0 0.0 0.0 0.0 0.0 0.0 0.0 0.0 0.0 0.0 0.0 0.0 0.0 0.1 0.6 0.0 0.0 0.0 0.0 0.0 0.0 0.0 0.0 0.0 0.0 0.0 0.0 0.0 0.0 0.0 0.0 0.0 0.0 0.0 0.0 0.0 0.0 0.0 0.0 0.0
0.0 0.0 0.0 0.0 0.0 0.0 0.1 0.0 0.0 0.1 0.1 0.0 0.0 0.0 0.2 0.2 0.0 0.3 0.2 0.0 0.0 0.0 0.0 0.0 0.0 0.0 0.0 0.0 0.0 0.0 0.0 0.0 0.0 0.0 0.0 0.0 0.0 0.0 0.0 0.0 0.0 0.0 0.0
0.1 0.0 0.0 0.0 0.0 0.0 0.0 0.1 0.1 0.1 0.2 0.2 0.2 0.2 0.1 0.2 0.4 0.4 0.7 0.3 0.3 0.1 0.0 0.0 0.0 0.0 0.0 0.0 0.0 0.0 0.0 0.0 0.0 0.0 0.0 0.0 0.0 0.0 0.0 0.0 0.0 0.0 0.0
0.2 0.1 0.1 0.0 0.0 0.0 0.1 0.0 0.1 0.1 0.1 0.1 0.1 0.2 0.2 0.2 0.3 0.6 0.9 3.8 3.1 0.3 0.2 0.5 0.0 0.2 0.0 0.0 0.0 0.0 0.0 0.0 0.0 0.0 0.0 0.0 0.0 0.0 0.0 0.0 0.0 0.0 0.0
0.3 0.2 0.1 0.1 0.0 0.0 0.0 0.0 0.1 0.0 0.0 0.1 0.2 0.2 0.3 0.3 0.3 0.4 0.8 1.4 5.3 4.5 1.1 0.3 0.8 0.2 0.0 0.0 0.0 0.2 0.0 0.0 0.0 0.0 0.0 0.0 0.0 0.0 0.0 0.0 0.0 0.0 0.0
0.1 0.1 0.1 0.1 0.1 0.0 0.0 0.0 0.0 0.0 0.0 0.1 0.2 0.2 0.3 0.3 0.3 0.3 0.6 0.5 1.1 2.0 1.7 0.8 1.0 1.0 0.6 0.2 0.4 0.1 0.2 0.1 0.0 0.0 0.1 0.0 0.0 0.0 0.0 0.0 0.0 0.0 0.0
0.3 0.2 0.1 0.3 0.4 0.3 0.1 0.1 0.1 0.2 0.0 0.1 0.1 0.2 0.2 0.2 0.1 0.3 0.3 0.5 0.5 1.0 2.0 1.4 1.0 1.2 0.8 0.7 0.5 0.3 0.2 0.1 0.0 0.3 0.2 0.0 0.0 0.0 0.0 0.0 0.0 0.0 0.1
2.8 2.6 2.5 1.8 1.5 0.7 1.4 0.3 0.4 1.6 1.7 0.4 0.6 0.5 0.7 0.2 0.4 0.3 0.1 0.3 0.5 0.8 1.1 1.5 1.4 1.4 1.5 1.3 1.2 0.9 0.6 0.5 0.4 0.3 0.1 0.0 0.1 0.0 0.1 0.1 0.0 0.1 0.3
7.6 7.4 6.6 5.4 4.6 5.0 4.8 7.4 3.6 1.7 2.0 3.2 3.4 2.9 1.7 1.6 1.1 1.1 1.1 0.4 0.5 0.6 0.5 1.8 1.9 1.6 1.2 1.0 1.1 1.0 0.9 0.6 0.4 0.3 0.0 0.1 0.1 0.1 0.2 0.1 0.2 0.3 0.1
7.9 10.2 13.3 14.1 12.0 7.3 7.9 6.9 6.3 7.2 3.7 5.4 6.5 2.8 2.7 3.5 2.9 1.9 2.9 2.0 1.7 1.1 1.3 1.3 1.6 2.2 3.7 1.8 1.8 1.7 3.5 0.9 0.8 0.3 0.6 0.4 0.2 0.3 0.1 0.4 0.3 0.2 0.4
3.1 8.8 9.0 10.4 9.1 6.8 6.6 4.4 2.9 6.3 6.4 5.6 8.5 6.3 4.7 4.4 4.7 3.1 1.1 2.9 2.2 3.3 5.8 5.0 5.2 7.9 9.6 6.6 5.9 5.8 9.1 9.1 6.7 5.2 4.1 4.1 0.9 0.3 0.2 0.3 0.3 0.1 0.1
0.0 0.5 1.8 0.5 3.3 2.7 1.9 0.8 0.5 1.7 3.0 2.4 2.5 2.4 2.1 1.7 2.0 2.7 2.6 2.2 2.2 3.4 4.7 6.6 9.0 7.3 9.5 10.1 7.9 8.2 12.1 11.1 12.0 9.7 11.4 11.7 9.2 6.8 10.1 9.2 4.0 6.9 3.2
2.0 0.7 0.6 0.3 0.1 0.1 0.3 0.2 0.0 0.2 0.4 0.9 0.9 0.7 0.7 0.5 0.7 1.0 1.3 1.2 1.3 1.4 2.7 2.5 5.3 5.9 4.9 4.8 4.5 6.0 6.2 7.3 8.6 6.9 8.3 9.6 7.8 8.4 8.7 9.5 10.5 10.8 8.9
2.1 1.9 4.7 2.3 2.6 0.3 0.1 0.0 0.1 0.0 0.0 0.0 1.0 0.1 0.2 0.1 0.2 0.4 1.1 0.8 0.4 0.6 0.6 0.7 1.1 1.1 0.8 1.0 1.4 1.6 3.4 3.4 4.8 3.0 1.8 8.6 5.2 5.8 5.2 3.5 0.8 3.0 2.5
3.8 3.5 3.4 1.1 2.2 0.6 0.5 0.5 0.4 0.3 1.1 0.9 0.4 0.0 0.0 0.0 0.0 0.8 1.0 1.1 0.5 0.4 0.2 0.1 0.4 0.6 0.2 0.3 0.4 3.2 7.8 15.5 14.3 11.8 5.8 9.4 7.9 6.6 6.0 3.2 2.9 3.3 3.0
4.4 4.2 3.4 2.2 1.6 1.4 0.5 0.8 0.6 0.5 0.4 0.2 0.2 0.1 0.1 0.3 1.2 1.4 2.4 2.3 2.0 3.6 3.8 3.5 2.1 1.8 1.4 1.0 3.7 2.1 7.9 10.7 9.9 13.8 6.9 7.8 11.8 12.2 15.4 12.7 7.4 6.0 5.5